Northfield, Minnesota, United States (55057)
Lat: 44.46N, Lon: 93.16W
Wx Zone: MNZ077
Local Info
Past Weather Observations for Today

NOTE: This archive is for the closest National Weather Service station to Northfield. Information may differ from the station used for current weather conditions.

Click here for Long-term Archive

Time Weather Temperature Dewpoint Humidity Pressure Winds Precip Visibility
17:54
Overcast
32°F / 0°C 27°F / -3°C 80% 30.12 in
(1020 mb)
S 9.2 mph
(S 15 kph)
- 10SM
17:34
Overcast
32°F / 0°C 28°F / -2°C 87% 30.12 in
(1020 mb)
S 6.9 mph
(S 11 kph)
- 10SM
17:14
Overcast
32°F / 0°C 28°F / -2°C 87% 30.12 in
(1020 mb)
S 8.1 mph
(S 13 kph)
- 10SM
16:54
Overcast
32°F / 0°C 28°F / -2°C 87% 30.12 in
(1020 mb)
S 6.9 mph
(S 11 kph)
- 10SM
16:34
Overcast
34°F / 1°C 28°F / -2°C 81% 30.12 in
(1020 mb)
S 4.6 mph
(S 7 kph)
- 10SM
16:14
Overcast
34°F / 1°C 28°F / -2°C 81% 30.12 in
(1020 mb)
S 5.8 mph
(S 9 kph)
- 10SM
15:54
Overcast
34°F / 1°C 28°F / -2°C 81% 30.12 in
(1020 mb)
S 8.1 mph
(S 13 kph)
- 10SM
15:34
Overcast
34°F / 1°C 28°F / -2°C 81% 30.12 in
(1020 mb)
S 4.6 mph
(S 7 kph)
- 10SM
15:14
Overcast
34°F / 1°C 28°F / -2°C 81% 30.12 in
(1020 mb)
S 8.1 mph
(S 13 kph)
- 10SM
14:54
Overcast
34°F / 1°C 28°F / -2°C 81% 30.12 in
(1020 mb)
S 4.6 mph
(S 7 kph)
- 10SM
14:34
Overcast
34°F / 1°C 28°F / -2°C 81% 30.09 in
(1019 mb)
S 6.9 mph
(S 11 kph)
- 10SM
14:14
Overcast
34°F / 1°C 28°F / -2°C 81% 30.12 in
(1020 mb)
S 6.9 mph
(S 11 kph)
- 10SM
13:54
Overcast
34°F / 1°C 28°F / -2°C 81% 30.12 in
(1020 mb)
SSE 5.8 mph
(SSE 9 kph)
- 10SM
13:34
Overcast
34°F / 1°C 28°F / -2°C 81% 30.12 in
(1020 mb)
S 5.8 mph
(S 9 kph)
- 10SM
13:14
Overcast
32°F / 0°C 28°F / -2°C 87% 30.12 in
(1020 mb)
S 8.1 mph
(S 13 kph)
- 7SM
12:54
Overcast
Fog And Mist
32°F / 0°C 28°F / -2°C 87% 30.12 in
(1020 mb)
S 6.9 mph
(S 11 kph)
- 5SM
12:34
Overcast
Fog And Mist
32°F / 0°C 30°F / -1°C 93% 30.12 in
(1020 mb)
S 5.8 mph
(S 9 kph)
- 3SM
12:14
Overcast
Fog And Mist
32°F / 0°C 30°F / -1°C 93% 30.15 in
(1021 mb)
S 9.2 mph
(S 15 kph)
- 3SM
11:54
Overcast
Fog And Mist
32°F / 0°C 28°F / -2°C 87% 30.15 in
(1021 mb)
S 5.8 mph
(S 9 kph)
- 4SM
11:34
Overcast
Fog And Mist
32°F / 0°C 28°F / -2°C 87% 30.15 in
(1021 mb)
S 6.9 mph
(S 11 kph)
- 4SM
11:14
Overcast
Fog And Mist
32°F / 0°C 28°F / -2°C 87% 30.15 in
(1021 mb)
S 8.1 mph
(S 13 kph)
- 4SM
10:54
Overcast
Fog And Mist
32°F / 0°C 28°F / -2°C 87% 30.15 in
(1021 mb)
S 5.8 mph
(S 9 kph)
- 4SM
10:34
Overcast
Fog And Mist
32°F / 0°C 28°F / -2°C 87% 30.15 in
(1021 mb)
S 6.9 mph
(S 11 kph)
- 3SM
10:14
Overcast
Fog And Mist
32°F / 0°C 28°F / -2°C 87% 30.15 in
(1021 mb)
S 9.2 mph
(S 15 kph)
- 3SM
09:54
Overcast
Fog And Mist
32°F / 0°C 28°F / -2°C 87% 30.15 in
(1021 mb)
S 8.1 mph
(S 13 kph)
- 3SM
09:34
Overcast
Fog And Mist
32°F / 0°C 28°F / -2°C 87% 30.15 in
(1021 mb)
S 6.9 mph
(S 11 kph)
- 4SM
09:14
Overcast
Fog And Mist
32°F / 0°C 28°F / -2°C 87% 30.15 in
(1021 mb)
S 6.9 mph
(S 11 kph)
- 4SM
08:54
Overcast
Fog And Mist
32°F / 0°C 28°F / -2°C 87% 30.15 in
(1021 mb)
S 5.8 mph
(S 9 kph)
- 3SM
08:34
Overcast
Fog And Mist
30°F / -1°C 28°F / -2°C 93% 30.15 in
(1021 mb)
S 6.9 mph
(S 11 kph)
- 4SM
08:14
Overcast
Fog And Mist
30°F / -1°C 27°F / -3°C 86% 30.15 in
(1021 mb)
S 4.6 mph
(S 7 kph)
- 4SM
07:54
Overcast
Fog And Mist
30°F / -1°C 27°F / -3°C 86% 30.15 in
(1021 mb)
S 5.8 mph
(S 9 kph)
- 4SM
07:34
Overcast
Fog And Mist
30°F / -1°C 27°F / -3°C 86% 30.15 in
(1021 mb)
S 5.8 mph
(S 9 kph)
- 4SM
07:14
Overcast
Fog And Mist
30°F / -1°C 27°F / -3°C 86% 30.15 in
(1021 mb)
S 8.1 mph
(S 13 kph)
- 4SM
06:54
Overcast
Fog And Mist
30°F / -1°C 27°F / -3°C 86% 30.15 in
(1021 mb)
SSE 8.1 mph
(SSE 13 kph)
- 4SM
06:34
Overcast
Fog And Mist
30°F / -1°C 27°F / -3°C 86% 30.15 in
(1021 mb)
S 4.6 mph
(S 7 kph)
- 5SM
06:14
Overcast
Fog And Mist
30°F / -1°C 27°F / -3°C 86% 30.15 in
(1021 mb)
S 5.8 mph
(S 9 kph)
- 5SM
05:54
Overcast
Fog And Mist
30°F / -1°C 27°F / -3°C 86% 30.15 in
(1021 mb)
SSE 8.1 mph
(SSE 13 kph)
- 5SM
05:34
Overcast
Fog And Mist
30°F / -1°C 27°F / -3°C 86% 30.15 in
(1021 mb)
SSE 6.9 mph
(SSE 11 kph)
- 5SM
05:14
Overcast
Fog And Mist
30°F / -1°C 27°F / -3°C 86% 30.15 in
(1021 mb)
S 6.9 mph
(S 11 kph)
- 5SM
04:54
Overcast
Fog And Mist
30°F / -1°C 27°F / -3°C 86% 30.15 in
(1021 mb)
S 6.9 mph
(S 11 kph)
- 5SM
04:34
Overcast
Fog And Mist
30°F / -1°C 27°F / -3°C 86% 30.15 in
(1021 mb)
S 5.8 mph
(S 9 kph)
- 5SM
04:14
Overcast
Fog And Mist
30°F / -1°C 27°F / -3°C 86% 30.15 in
(1021 mb)
S 6.9 mph
(S 11 kph)
- 5SM
03:54
Overcast
30°F / -1°C 27°F / -3°C 86% 30.15 in
(1021 mb)
S 6.9 mph
(S 11 kph)
- 7SM
03:34
Overcast
30°F / -1°C 27°F / -3°C 86% 30.15 in
(1021 mb)
S 5.8 mph
(S 9 kph)
- 7SM
03:14
Overcast
30°F / -1°C 27°F / -3°C 86% 30.15 in
(1021 mb)
S 6.9 mph
(S 11 kph)
- 7SM
02:54
Overcast
30°F / -1°C 27°F / -3°C 86% 30.15 in
(1021 mb)
S 6.9 mph
(S 11 kph)
- 7SM
02:34
Overcast
30°F / -1°C 27°F / -3°C 86% 30.18 in
(1022 mb)
S 6.9 mph
(S 11 kph)
- 7SM
02:14
Overcast
30°F / -1°C 27°F / -3°C 86% 30.15 in
(1021 mb)
S 6.9 mph
(S 11 kph)
- 7SM
01:54
Overcast
30°F / -1°C 27°F / -3°C 86% 30.15 in
(1021 mb)
S 6.9 mph
(S 11 kph)
- 7SM
01:34
Overcast
30°F / -1°C 27°F / -3°C 86% 30.15 in
(1021 mb)
S 6.9 mph
(S 11 kph)
- 7SM
01:14
Overcast
30°F / -1°C 27°F / -3°C 86% 30.15 in
(1021 mb)
S 9.2 mph
(S 15 kph)
- 7SM
00:54
Overcast
30°F / -1°C 27°F / -3°C 86% 30.15 in
(1021 mb)
SSE 8.1 mph
(SSE 13 kph)
- 7SM
00:34
Overcast
30°F / -1°C 27°F / -3°C 86% 30.15 in
(1021 mb)
S 8.1 mph
(S 13 kph)
- 7SM
00:14
Overcast
30°F / -1°C 27°F / -3°C 86% 30.15 in
(1021 mb)
S 8.1 mph
(S 13 kph)
- 7SM
Time Weather Temperature Dewpoint Humidity Pressure Winds Precip Visibility


Weather for websites

WeatherForYou.com, LLC is not responsible for any damages or problems caused by this service. Current weather conditions are obtained from the closest station including government and personal stations which may have varying degrees of accuracy. Weather forecasts are derived from the NOAA NDFD. Like all things, this site belongs to Jesus Christ... He just trusts me to maintain it. If you have any questions or comments email webmaster@weatherforyou.com

Copyright © 2014, WeatherForYou.com LLC. All rights reserved.